Location: Béaulencourt
(50.0796°N, 2.8795°E)
Time: 21:24:19
(UTC+00:00)

Cosmos 2251 Rocket - Pass Details

Date: 20 January 2026
Orbit: 762 x 787 km, 74.0° (Epoch: 16 February)

Event Time Altitude Azimuth Distance (km) Brightness Sun altitude
Rises 06:02:01 0° 197° (SSW) 3,263 6.7 -14.9°
Reaches altitude 10° 06:04:24 10° 195° (SSW) 2,337 6.0 -14.5°
Maximum altitude 06:09:42 76° 111° (ESE) 810 3.7 -13.7°
Drops below altitude 10° 06:15:01 10° 26° (NNE) 2,340 6.1 -12.9°
Sets 06:17:25 0° 26° (NNE) 3,268 6.9 -12.5°
